This demonstration page uses our WeatherBlox Daily Observations layout. Learn more.

41.55636, -103.73856

Hourly Observations for March 22, 2019

Temp ( °F °C ) Dew Point ( °F °C ) Humidity (%) Winds ( mph kmh ) Pressure ( in mb ) Visibility ( mi km ) Precip ( " mm )
12:53 am 00:53 Clear 38 3.3 32 0 79 79 E 8 13 30.03 1017 10 16.09344 0 0
1:53 am 01:53 Mostly Clear 37 2.8 33 0.6 86 86 E 9 15 30.03 1017 10 16.09344 0 0
2:53 am 02:53 Mostly Cloudy 37 2.8 32 0 82 82 ESE 7 11 30 1016 10 16.09344 0 0
3:53 am 03:53 Cloudy 38 3.3 33 0.6 83 83 ESE 7 11 29.97 1015 10 16.09344 0 0
4:53 am 04:53 Cloudy 37 2.8 34 1.1 89 89 SE 6 9 29.97 1015 10 16.09344 0 0
5:53 am 05:53 Clear 34 1.1 32 0 92 92 E 5 7 30 1016 10 16.09344 0 0
6:53 am 06:53 Clear 35 1.7 32 0 89 89 E 9 15 30.03 1017 10 16.09344 0 0
7:53 am 07:53 Sunny 36 2.2 34 1.1 93 93 E 5 7 30.03 1017 10 16.09344 0 0
8:53 am 08:53 Sunny 43 6.1 35 1.7 74 74 E 9 15 30 1016 10 16.09344 0 0
9:53 am 09:53 Sunny 45 7.2 36 2.2 71 71 ESE 14 22 30 1016 10 16.09344 0 0
10:53 am 10:53 Sunny 48 8.9 37 2.8 66 66 ESE 14 22 29.97 1015 10 16.09344 0 0
11:53 am 11:53 Mostly Cloudy 51 10.6 39 3.9 64 64 ESE 15 24 29.97 1015 10 16.09344 0 0
12:53 pm 12:53 Cloudy with Light Rain 47 8.3 43 6.1 86 86 ESE 22 35 29.97 1015 9 14.484096 0.001 0.001
1:53 pm 13:53 Cloudy with Light Rain 43 6.1 43 6.1 100 100 ESE 16 26 29.97 1015 7 11.265408 0.02 0.508
2:20 pm 14:20 Cloudy with Light Rain 44 6.7 44 6.7 100 100 SE 12 19 29.97 1015 9 14.484096 0.02 0.508
2:53 pm 14:53 Cloudy with Light Rain 45 7.2 45 7.2 100 100 Calm 29.94 1014 10 16.09344 0.02 0.508
3:53 pm 15:53 Cloudy 47 8.3 47 8.3 100 100 ESE 13 20 29.94 1014 10 16.09344 0.01 0.254
4:48 pm 16:48 Cloudy with Light Rain 46 8 46 8 100 100 E 10 17 29.91 1013 7 11.265408 0 0
4:53 pm 16:53 Cloudy with Light Rain 47 8.3 46 7.8 97 97 E 9 15 29.91 1013 8 12.874752 0.001 0.001
5:05 pm 17:05 Cloudy 47 8.3 47 8.3 100 100 E 8 13 29.91 1013 10 16.09344 0.001 0.001
5:53 pm 17:53 Cloudy 48 8.9 47 8.3 96 96 ENE 7 11 29.91 1013 10 16.09344 0.001 0.001
6:20 pm 18:20 Cloudy 48 9 46 8 94 94 NE 5 7 29.91 1013 10 16.09344 0 0
6:53 pm 18:53 Cloudy 48 8.9 46 7.8 93 93 ESE 13 20 29.91 1013 10 16.09344 0 0
7:53 pm 19:53 Cloudy with Light Rain 46 7.8 46 7.8 100 100 ESE 15 24 29.91 1013 10 16.09344 0.001 0.001
8:34 pm 20:34 Cloudy with Light Rain 46 7.8 46 7.8 100 100 ESE 14 22 29.91 1013 9 14.484096 0.001 0.001
8:46 pm 20:46 Cloudy with Light Rain 46 7.8 46 7.8 100 100 ESE 13 20 29.91 1013 8 12.874752 0.001 0.001
8:53 pm 20:53 Cloudy with Light Rain 46 7.8 46 7.8 100 100 ESE 13 20 29.91 1013 10 16.09344 0.001 0.001
9:29 pm 21:29 Cloudy with Heavy Rain 45 7.2 45 7.2 100 100 ESE 13 20 29.91 1013 2 3.218688 0.05 1.27
9:44 pm 21:44 Cloudy with Rain 45 7 N/A N/A ESE 18 30 29.94 1014 3 4.828032 0 0
9:53 pm 21:53 Cloudy with Rain 45 7 N/A N/A ESE 16 26 29.91 1013 4 6.437376 0.15 3.81
10:01 pm 22:01 Cloudy with Light Rain 45 7 N/A N/A ESE 16 26 29.94 1014 5 8.04672 0.001 0.001
10:53 pm 22:53 Cloudy with Light Rain 45 7 N/A N/A ESE 16 26 29.91 1013 6 9.656064 0.03 0.762
11:40 pm 23:40 Cloudy with Light Rain 43 6 N/A N/A ESE 15 24 29.94 1014 6 9.656064 0 0
11:53 pm 23:53 Cloudy with Light Rain 43 6 N/A N/A ESE 15 24 29.91 1013 7 11.265408 0.04 1.016

Powered by AerisWeather